Time,TemperatureF,DewpointF,PressureIn,WindDirection,WindDirectionDegrees,WindSpeedMPH,WindSpeedGustMPH,Humidity,HourlyPrecipIn,Conditions,Clouds,dailyrainin,SoftwareType,DateUTC
2013-06-08 00:00:00,55.9,50.2,29.93,East,85,0.0,6.0,81,0.00,,,0.02,meteohub,2013-06-08 05:00:00,
2013-06-08 00:05:00,55.4,50.4,29.93,East,85,0.0,6.0,83,0.00,,,0.00,meteohub,2013-06-08 05:05:00,
2013-06-08 00:11:00,55.0,50.4,29.93,East,85,0.0,6.0,84,0.00,,,0.00,meteohub,2013-06-08 05:11:00,
2013-06-08 00:16:00,54.9,50.2,29.93,East,85,0.0,2.0,84,0.00,,,0.00,meteohub,2013-06-08 05:16:00,
2013-06-08 00:21:00,54.5,49.8,29.93,East,85,0.0,2.0,84,0.00,,,0.00,meteohub,2013-06-08 05:21:00,
2013-06-08 00:26:00,54.1,49.8,29.93,East,85,0.0,2.0,85,0.00,,,0.00,meteohub,2013-06-08 05:26:00,
2013-06-08 00:31:00,54.0,49.6,29.93,East,85,0.0,1.0,85,0.00,,,0.00,meteohub,2013-06-08 05:31:00,
2013-06-08 00:37:00,53.8,49.6,29.93,East,85,0.0,0.0,86,0.00,,,0.00,meteohub,2013-06-08 05:37:00,
2013-06-08 00:42:00,53.4,49.6,29.93,East,85,0.0,0.0,87,0.00,,,0.00,meteohub,2013-06-08 05:42:00,
2013-06-08 00:47:00,53.2,49.5,29.92,East,85,0.0,0.0,87,0.00,,,0.00,meteohub,2013-06-08 05:47:00,
2013-06-08 00:52:00,53.2,49.8,29.92,East,85,0.0,0.0,88,0.00,,,0.00,meteohub,2013-06-08 05:52:00,
2013-06-08 00:57:00,53.1,49.6,29.92,East,85,0.0,0.0,88,0.00,,,0.00,meteohub,2013-06-08 05:57:00,
2013-06-08 01:03:00,52.7,49.3,29.93,East,85,0.0,0.0,88,0.00,,,0.00,meteohub,2013-06-08 06:03:00,
2013-06-08 01:08:00,52.5,49.5,29.92,East,85,0.0,0.0,89,0.00,,,0.00,meteohub,2013-06-08 06:08:00,
2013-06-08 01:13:00,52.5,49.5,29.92,East,85,0.0,0.0,89,0.00,,,0.00,meteohub,2013-06-08 06:13:00,
2013-06-08 01:18:00,52.3,49.5,29.92,East,85,0.0,0.0,90,0.00,,,0.00,meteohub,2013-06-08 06:18:00,
2013-06-08 01:23:00,52.2,49.3,29.92,East,85,0.0,0.0,90,0.00,,,0.00,meteohub,2013-06-08 06:23:00,
2013-06-08 01:29:00,52.2,49.3,29.92,East,85,0.0,0.0,90,0.00,,,0.00,meteohub,2013-06-08 06:29:00,
2013-06-08 01:34:00,52.0,49.1,29.92,East,85,1.0,0.0,90,0.00,,,0.00,meteohub,2013-06-08 06:34:00,
2013-06-08 01:39:00,52.0,49.5,29.92,East,85,0.0,1.0,91,0.00,,,0.00,meteohub,2013-06-08 06:39:00,
2013-06-08 01:44:00,51.6,49.1,29.92,East,85,0.0,2.0,91,0.00,,,0.00,meteohub,2013-06-08 06:44:00,
2013-06-08 01:49:00,51.4,48.9,29.93,East,85,1.0,2.0,91,0.00,,,0.00,meteohub,2013-06-08 06:49:00,
2013-06-08 01:54:00,51.4,48.9,29.93,East,85,0.0,2.0,91,0.00,,,0.00,meteohub,2013-06-08 06:54:00,
2013-06-08 01:59:00,51.3,48.7,29.93,East,85,0.0,3.0,91,0.00,,,0.00,meteohub,2013-06-08 06:59:00,
2013-06-08 02:05:00,51.1,48.6,29.93,East,85,0.0,3.0,91,0.00,,,0.00,meteohub,2013-06-08 07:05:00,
2013-06-08 02:10:00,50.7,48.2,29.93,East,85,0.0,0.0,91,0.00,,,0.00,meteohub,2013-06-08 07:10:00,
2013-06-08 02:15:00,50.5,48.0,29.93,East,85,0.0,1.0,91,0.00,,,0.00,meteohub,2013-06-08 07:15:00,
2013-06-08 02:20:00,50.5,48.0,29.93,East,85,0.0,1.0,91,0.00,,,0.00,meteohub,2013-06-08 07:20:00,
2013-06-08 02:25:00,50.5,48.4,29.93,East,85,0.0,1.0,92,0.00,,,0.00,meteohub,2013-06-08 07:25:00,
2013-06-08 02:30:00,50.4,48.2,29.93,East,85,0.0,0.0,92,0.00,,,0.00,meteohub,2013-06-08 07:30:00,
2013-06-08 02:36:00,49.6,47.5,29.93,East,85,0.0,1.0,92,0.00,,,0.00,meteohub,2013-06-08 07:36:00,
2013-06-08 02:41:00,49.8,47.7,29.93,East,85,0.0,1.0,92,0.00,,,0.00,meteohub,2013-06-08 07:41:00,
2013-06-08 02:46:00,50.2,48.2,29.93,East,85,0.0,1.0,93,0.00,,,0.00,meteohub,2013-06-08 07:46:00,
2013-06-08 02:51:00,50.2,48.2,29.93,East,85,0.0,0.0,93,0.00,,,0.00,meteohub,2013-06-08 07:51:00,
2013-06-08 02:57:00,49.8,47.8,29.93,East,85,0.0,0.0,93,0.00,,,0.00,meteohub,2013-06-08 07:57:00,
2013-06-08 03:02:00,49.6,47.7,29.93,East,85,0.0,0.0,93,0.00,,,0.00,meteohub,2013-06-08 08:02:00,
2013-06-08 03:07:00,49.5,47.5,29.93,East,85,0.0,0.0,93,0.00,,,0.00,meteohub,2013-06-08 08:07:00,
2013-06-08 03:12:00,49.5,47.5,29.93,East,85,0.0,0.0,93,0.00,,,0.00,meteohub,2013-06-08 08:12:00,
2013-06-08 03:17:00,49.6,47.7,29.93,East,85,0.0,0.0,93,0.00,,,0.00,meteohub,2013-06-08 08:17:00,
2013-06-08 03:22:00,49.5,47.5,29.94,East,85,0.0,1.0,93,0.00,,,0.00,meteohub,2013-06-08 08:22:00,
2013-06-08 03:27:00,49.5,47.5,29.94,East,85,0.0,2.0,93,0.00,,,0.00,meteohub,2013-06-08 08:27:00,
2013-06-08 03:32:00,48.6,46.6,29.94,East,85,0.0,3.0,93,0.00,,,0.00,meteohub,2013-06-08 08:32:00,
2013-06-08 03:38:00,48.0,46.0,29.94,East,85,0.0,3.0,93,0.00,,,0.00,meteohub,2013-06-08 08:38:00,
2013-06-08 03:43:00,47.8,46.2,29.94,East,85,1.0,3.0,94,0.00,,,0.00,meteohub,2013-06-08 08:43:00,
2013-06-08 03:48:00,48.7,47.1,29.93,East,85,1.0,2.0,94,0.00,,,0.00,meteohub,2013-06-08 08:48:00,
2013-06-08 03:53:00,48.7,47.1,29.94,East,85,0.0,2.0,94,0.00,,,0.00,meteohub,2013-06-08 08:53:00,
2013-06-08 03:58:00,48.6,46.9,29.94,East,85,0.0,3.0,94,0.00,,,0.00,meteohub,2013-06-08 08:58:00,
2013-06-08 04:04:00,48.9,47.5,29.94,East,85,0.0,3.0,95,0.00,,,0.00,meteohub,2013-06-08 09:04:00,
2013-06-08 04:09:00,48.7,47.1,29.94,East,85,0.0,3.0,94,0.00,,,0.00,meteohub,2013-06-08 09:09:00,
2013-06-08 04:14:00,48.4,46.8,29.94,East,85,1.0,2.0,94,0.00,,,0.00,meteohub,2013-06-08 09:14:00,
2013-06-08 04:19:00,48.4,46.8,29.94,East,85,0.0,2.0,94,0.00,,,0.00,meteohub,2013-06-08 09:19:00,
2013-06-08 04:24:00,48.6,46.9,29.94,East,85,0.0,2.0,94,0.00,,,0.00,meteohub,2013-06-08 09:24:00,
2013-06-08 04:29:00,48.4,46.8,29.94,East,85,0.0,2.0,94,0.00,,,0.00,meteohub,2013-06-08 09:29:00,
2013-06-08 04:34:00,48.0,46.6,29.94,East,85,0.0,1.0,95,0.00,,,0.00,meteohub,2013-06-08 09:34:00,
2013-06-08 04:40:00,48.0,46.6,29.94,East,85,0.0,0.0,95,0.00,,,0.00,meteohub,2013-06-08 09:40:00,
2013-06-08 04:45:00,48.4,46.9,29.94,East,85,0.0,0.0,95,0.00,,,0.00,meteohub,2013-06-08 09:45:00,
2013-06-08 04:50:00,48.2,46.8,29.94,East,85,0.0,0.0,95,0.00,,,0.00,meteohub,2013-06-08 09:50:00,
2013-06-08 04:55:00,48.4,46.9,29.94,East,85,0.0,0.0,95,0.00,,,0.00,meteohub,2013-06-08 09:55:00,
2013-06-08 05:00:00,48.6,47.1,29.94,East,85,0.0,0.0,95,0.00,,,0.00,meteohub,2013-06-08 10:00:00,
2013-06-08 05:06:00,48.7,47.3,29.94,East,85,0.0,0.0,95,0.00,,,0.00,meteohub,2013-06-08 10:06:00,
2013-06-08 05:11:00,49.1,47.7,29.94,East,85,0.0,1.0,95,0.00,,,0.00,meteohub,2013-06-08 10:11:00,
2013-06-08 05:16:00,49.3,47.8,29.94,East,85,1.0,1.0,95,0.00,,,0.00,meteohub,2013-06-08 10:16:00,
2013-06-08 05:21:00,49.3,47.8,29.94,East,85,0.0,2.0,95,0.00,,,0.00,meteohub,2013-06-08 10:21:00,
2013-06-08 05:27:00,49.6,48.2,29.94,East,85,0.0,2.0,95,0.00,,,0.00,meteohub,2013-06-08 10:27:00,
2013-06-08 05:32:00,49.6,48.2,29.95,East,85,0.0,2.0,95,0.00,,,0.00,meteohub,2013-06-08 10:32:00,
2013-06-08 05:37:00,50.2,48.7,29.95,East,85,0.0,1.0,95,0.00,,,0.00,meteohub,2013-06-08 10:37:00,
2013-06-08 05:42:00,50.4,49.3,29.95,East,85,0.0,1.0,96,0.00,,,0.00,meteohub,2013-06-08 10:42:00,
2013-06-08 05:47:00,50.4,48.9,29.95,East,85,0.0,1.0,95,0.00,,,0.00,meteohub,2013-06-08 10:47:00,
2013-06-08 05:53:00,50.4,48.9,29.94,East,85,0.0,1.0,95,0.00,,,0.00,meteohub,2013-06-08 10:53:00,
2013-06-08 05:58:00,50.4,49.3,29.95,East,85,0.0,0.0,96,0.00,,,0.00,meteohub,2013-06-08 10:58:00,
2013-06-08 06:03:00,50.4,49.3,29.95,East,85,0.0,0.0,96,0.00,,,0.00,meteohub,2013-06-08 11:03:00,
2013-06-08 06:08:00,50.5,49.5,29.96,East,85,0.0,0.0,96,0.00,,,0.00,meteohub,2013-06-08 11:08:00,
2013-06-08 06:14:00,50.7,49.6,29.96,East,85,0.0,0.0,96,0.00,,,0.00,meteohub,2013-06-08 11:14:00,
2013-06-08 06:19:00,51.1,50.0,29.96,East,85,0.0,0.0,96,0.00,,,0.00,meteohub,2013-06-08 11:19:00,
2013-06-08 06:24:00,51.3,50.2,29.95,East,85,0.0,0.0,96,0.00,,,0.00,meteohub,2013-06-08 11:24:00,
2013-06-08 06:29:00,51.4,50.4,29.96,East,85,0.0,0.0,96,0.00,,,0.00,meteohub,2013-06-08 11:29:00,
2013-06-08 06:34:00,51.6,50.5,29.96,East,85,0.0,0.0,96,0.00,,,0.00,meteohub,2013-06-08 11:34:00,
2013-06-08 06:39:00,52.0,50.9,29.96,East,85,0.0,0.0,96,0.00,,,0.00,meteohub,2013-06-08 11:39:00,
2013-06-08 06:45:00,52.3,51.3,29.96,East,85,0.0,0.0,96,0.00,,,0.00,meteohub,2013-06-08 11:45:00,
2013-06-08 06:50:00,52.5,51.4,29.96,East,85,0.0,1.0,96,0.00,,,0.00,meteohub,2013-06-08 11:50:00,
2013-06-08 06:55:00,52.7,51.6,29.96,East,85,0.0,1.0,96,0.00,,,0.00,meteohub,2013-06-08 11:55:00,
2013-06-08 07:00:00,52.9,51.8,29.96,East,85,0.0,1.0,96,0.00,,,0.00,meteohub,2013-06-08 12:00:00,
2013-06-08 07:05:00,52.9,51.8,29.96,East,85,0.0,1.0,96,0.00,,,0.00,meteohub,2013-06-08 12:05:00,
2013-06-08 07:11:00,53.1,52.0,29.96,East,85,0.0,1.0,96,0.00,,,0.00,meteohub,2013-06-08 12:11:00,
2013-06-08 07:16:00,53.2,52.2,29.96,East,85,0.0,1.0,96,0.00,,,0.00,meteohub,2013-06-08 12:16:00,
2013-06-08 07:21:00,53.2,52.2,29.96,East,85,0.0,1.0,96,0.00,,,0.00,meteohub,2013-06-08 12:21:00,
2013-06-08 07:26:00,53.4,52.3,29.96,East,85,0.0,1.0,96,0.00,,,0.00,meteohub,2013-06-08 12:26:00,
2013-06-08 07:31:00,53.6,52.5,29.96,East,85,0.0,1.0,96,0.00,,,0.00,meteohub,2013-06-08 12:31:00,
2013-06-08 07:37:00,53.8,52.7,29.96,East,85,1.0,1.0,96,0.00,,,0.00,meteohub,2013-06-08 12:37:00,
2013-06-08 07:42:00,54.1,53.1,29.96,East,85,0.0,1.0,96,0.00,,,0.00,meteohub,2013-06-08 12:42:00,
2013-06-08 07:47:00,54.3,53.2,29.96,East,85,0.0,1.0,96,0.00,,,0.00,meteohub,2013-06-08 12:47:00,
2013-06-08 07:52:00,54.7,53.6,29.96,East,85,0.0,1.0,96,0.00,,,0.00,meteohub,2013-06-08 12:52:00,
2013-06-08 07:57:00,54.9,53.8,29.96,East,85,1.0,1.0,96,0.00,,,0.00,meteohub,2013-06-08 12:57:00,
2013-06-08 08:02:00,55.0,54.0,29.96,East,85,0.0,1.0,96,0.00,,,0.00,meteohub,2013-06-08 13:02:00,
2013-06-08 08:07:00,55.6,54.5,29.96,East,85,0.0,2.0,96,0.00,,,0.00,meteohub,2013-06-08 13:07:00,
2013-06-08 08:12:00,55.8,54.7,29.96,East,85,0.0,2.0,96,0.00,,,0.00,meteohub,2013-06-08 13:12:00,
2013-06-08 08:18:00,56.1,55.0,29.96,East,85,0.0,1.0,96,0.00,,,0.00,meteohub,2013-06-08 13:18:00,
2013-06-08 08:23:00,56.7,55.6,29.96,East,85,0.0,1.0,96,0.00,,,0.00,meteohub,2013-06-08 13:23:00,
2013-06-08 08:28:00,56.8,55.4,29.96,East,85,0.0,1.0,95,0.00,,,0.00,meteohub,2013-06-08 13:28:00,
2013-06-08 08:33:00,57.0,55.6,29.97,East,85,0.0,1.0,95,0.00,,,0.00,meteohub,2013-06-08 13:33:00,
2013-06-08 08:39:00,57.6,55.8,29.97,East,85,0.0,1.0,94,0.00,,,0.00,meteohub,2013-06-08 13:39:00,
2013-06-08 08:44:00,57.7,55.8,29.98,East,85,0.0,3.0,93,0.00,,,0.00,meteohub,2013-06-08 13:44:00,
2013-06-08 08:49:00,57.9,55.2,29.98,East,85,0.0,3.0,91,0.00,,,0.00,meteohub,2013-06-08 13:49:00,
2013-06-08 08:54:00,58.3,55.4,29.98,East,85,0.0,3.0,90,0.00,,,0.00,meteohub,2013-06-08 13:54:00,
2013-06-08 09:00:00,58.5,54.9,29.98,East,85,0.0,0.0,88,0.00,,,0.00,meteohub,2013-06-08 14:00:00,
2013-06-08 09:05:00,58.6,55.0,29.99,East,85,0.0,1.0,88,0.00,,,0.00,meteohub,2013-06-08 14:05:00,
2013-06-08 09:10:00,58.8,55.0,29.99,East,85,1.0,1.0,87,0.00,,,0.00,meteohub,2013-06-08 14:10:00,
2013-06-08 09:15:00,59.2,55.6,29.99,East,85,0.0,3.0,88,0.00,,,0.00,meteohub,2013-06-08 14:15:00,
2013-06-08 09:20:00,59.2,55.4,29.99,East,85,2.0,3.0,87,0.00,,,0.00,meteohub,2013-06-08 14:20:00,
2013-06-08 09:25:00,59.4,55.2,29.99,East,85,0.0,5.0,86,0.00,,,0.00,meteohub,2013-06-08 14:25:00,
2013-06-08 09:31:00,59.5,55.6,29.99,East,85,0.0,5.0,87,0.00,,,0.00,meteohub,2013-06-08 14:31:00,
2013-06-08 09:36:00,59.5,55.4,29.99,East,85,0.0,3.0,86,0.00,,,0.00,meteohub,2013-06-08 14:36:00,
2013-06-08 09:41:00,59.5,54.7,29.99,East,85,0.0,1.0,84,0.00,,,0.00,meteohub,2013-06-08 14:41:00,
2013-06-08 09:46:00,59.7,54.5,29.98,East,85,0.0,1.0,83,0.00,,,0.00,meteohub,2013-06-08 14:46:00,
2013-06-08 09:52:00,60.1,54.5,29.98,East,85,0.0,1.0,82,0.00,,,0.00,meteohub,2013-06-08 14:52:00,
2013-06-08 09:57:00,60.4,54.3,29.98,East,85,0.0,0.0,80,0.00,,,0.00,meteohub,2013-06-08 14:57:00,
2013-06-08 10:02:00,61.0,54.5,29.98,East,85,1.0,1.0,79,0.00,,,0.00,meteohub,2013-06-08 15:02:00,
2013-06-08 10:07:00,61.2,54.3,29.98,East,85,2.0,5.0,78,0.00,,,0.00,meteohub,2013-06-08 15:07:00,
2013-06-08 10:12:00,61.3,54.5,29.98,East,85,1.0,5.0,78,0.00,,,0.00,meteohub,2013-06-08 15:12:00,
2013-06-08 10:17:00,62.1,54.3,29.98,East,85,1.0,5.0,76,0.00,,,0.00,meteohub,2013-06-08 15:17:00,
2013-06-08 10:22:00,63.0,54.9,29.97,East,85,5.0,6.0,75,0.00,,,0.00,meteohub,2013-06-08 15:22:00,
2013-06-08 10:27:00,64.0,54.5,29.98,East,85,3.0,7.0,71,0.00,,,0.00,meteohub,2013-06-08 15:27:00,
2013-06-08 10:32:00,64.6,55.8,29.98,East,85,8.0,8.0,73,0.00,,,0.00,meteohub,2013-06-08 15:32:00,
2013-06-08 10:37:00,64.8,55.6,29.98,ENE,76,5.0,10.0,72,0.00,,,0.00,meteohub,2013-06-08 15:37:00,
2013-06-08 10:43:00,64.8,54.7,29.99,ENE,72,7.0,10.0,70,0.00,,,0.00,meteohub,2013-06-08 15:43:00,
2013-06-08 10:48:00,64.8,53.6,29.99,ENE,71,2.0,9.0,67,0.00,,,0.00,meteohub,2013-06-08 15:48:00,
2013-06-08 10:53:00,64.9,53.8,29.99,NNE,23,3.0,8.0,67,0.00,,,0.00,meteohub,2013-06-08 15:53:00,
2013-06-08 10:58:00,65.5,53.8,29.99,NNE,23,0.0,9.0,66,0.00,,,0.00,meteohub,2013-06-08 15:58:00,
2013-06-08 11:03:00,65.7,53.6,29.99,NNE,23,1.0,9.0,65,0.00,,,0.00,meteohub,2013-06-08 16:03:00,
2013-06-08 11:09:00,66.0,53.4,29.99,NNE,23,2.0,9.0,64,0.00,,,0.00,meteohub,2013-06-08 16:09:00,
2013-06-08 11:14:00,66.2,53.2,29.99,NNE,23,1.0,8.0,63,0.00,,,0.00,meteohub,2013-06-08 16:14:00,
2013-06-08 11:19:00,66.6,54.5,29.99,NNE,23,1.0,5.0,65,0.00,,,0.00,meteohub,2013-06-08 16:19:00,
2013-06-08 11:24:00,66.7,51.1,29.99,NNE,21,5.0,5.0,57,0.00,,,0.00,meteohub,2013-06-08 16:24:00,
2013-06-08 11:30:00,66.7,51.1,29.99,NNE,21,3.0,7.0,57,0.00,,,0.00,meteohub,2013-06-08 16:30:00,
2013-06-08 11:35:00,66.9,48.7,29.99,NNE,21,0.0,7.0,52,0.00,,,0.00,meteohub,2013-06-08 16:35:00,
2013-06-08 11:40:00,67.5,52.2,29.99,North,11,1.0,8.0,58,0.00,,,0.00,meteohub,2013-06-08 16:40:00,
2013-06-08 11:45:00,68.0,51.8,29.99,North,11,4.0,8.0,56,0.00,,,0.00,meteohub,2013-06-08 16:45:00,
2013-06-08 11:50:00,68.4,51.6,29.99,North,11,0.0,10.0,55,0.00,,,0.00,meteohub,2013-06-08 16:50:00,
2013-06-08 11:55:00,68.4,50.5,29.99,North,11,0.0,10.0,53,0.00,,,0.00,meteohub,2013-06-08 16:55:00,
2013-06-08 12:01:00,68.5,53.2,29.99,NNE,17,6.0,10.0,58,0.00,,,0.00,meteohub,2013-06-08 17:01:00,
2013-06-08 12:07:00,68.4,52.0,29.99,NNE,26,6.0,8.0,56,0.00,,,0.00,meteohub,2013-06-08 17:07:00,
2013-06-08 12:12:00,68.0,51.8,29.99,NNE,26,2.0,9.0,56,0.00,,,0.00,meteohub,2013-06-08 17:12:00,
2013-06-08 12:17:00,67.8,52.9,29.99,North,5,7.0,9.0,59,0.00,,,0.00,meteohub,2013-06-08 17:17:00,
2013-06-08 12:22:00,67.8,52.0,29.99,North,5,4.0,9.0,57,0.00,,,0.00,meteohub,2013-06-08 17:22:00,
2013-06-08 12:27:00,67.8,51.6,29.99,North,5,1.0,9.0,56,0.00,,,0.00,meteohub,2013-06-08 17:27:00,
2013-06-08 12:32:00,68.4,54.3,29.99,North,5,5.0,8.0,61,0.00,,,0.00,meteohub,2013-06-08 17:32:00,
2013-06-08 12:37:00,68.4,53.1,29.99,North,0,3.0,9.0,58,0.00,,,0.00,meteohub,2013-06-08 17:37:00,
2013-06-08 12:42:00,68.4,52.0,29.99,North,0,6.0,9.0,56,0.00,,,0.00,meteohub,2013-06-08 17:42:00,
2013-06-08 12:48:00,67.8,51.6,29.99,North,355,2.0,9.0,56,0.00,,,0.00,meteohub,2013-06-08 17:48:00,
2013-06-08 12:53:00,68.4,52.5,29.99,North,355,3.0,9.0,57,0.00,,,0.00,meteohub,2013-06-08 17:53:00,
2013-06-08 12:58:00,68.5,51.8,29.99,North,351,1.0,9.0,55,0.00,,,0.00,meteohub,2013-06-08 17:58:00,
2013-06-08 13:04:00,68.7,51.4,29.99,North,355,1.0,7.0,54,0.00,,,0.00,meteohub,2013-06-08 18:04:00,
2013-06-08 13:09:00,69.1,54.1,29.98,North,0,6.0,9.0,59,0.00,,,0.00,meteohub,2013-06-08 18:09:00,
2013-06-08 13:14:00,69.4,54.0,29.98,NNW,347,4.0,9.0,58,0.00,,,0.00,meteohub,2013-06-08 18:14:00,
2013-06-08 13:19:00,69.6,54.7,29.98,North,355,9.0,11.0,59,0.00,,,0.00,meteohub,2013-06-08 18:19:00,
2013-06-08 13:24:00,69.3,53.4,29.98,NNW,340,9.0,11.0,57,0.00,,,0.00,meteohub,2013-06-08 18:24:00,
2013-06-08 13:29:00,68.7,54.7,29.98,NNW,344,7.0,11.0,61,0.00,,,0.00,meteohub,2013-06-08 18:29:00,
2013-06-08 13:35:00,68.9,52.0,29.98,NNW,347,1.0,11.0,55,0.00,,,0.00,meteohub,2013-06-08 18:35:00,
2013-06-08 13:40:00,68.4,55.8,29.98,NNW,346,6.0,13.0,64,0.00,,,0.00,meteohub,2013-06-08 18:40:00,
2013-06-08 13:45:00,67.8,56.1,29.98,North,0,5.0,13.0,66,0.00,,,0.00,meteohub,2013-06-08 18:45:00,
2013-06-08 13:50:00,67.5,55.8,29.98,North,355,6.0,12.0,66,0.00,,,0.00,meteohub,2013-06-08 18:50:00,
2013-06-08 13:55:00,67.3,57.6,29.97,North,355,5.0,12.0,71,0.00,,,0.00,meteohub,2013-06-08 18:55:00,
2013-06-08 14:01:00,67.5,57.0,29.97,NNW,338,4.0,11.0,69,0.00,,,0.00,meteohub,2013-06-08 19:01:00,
2013-06-08 14:06:00,67.1,56.7,29.97,North,349,7.0,11.0,69,0.00,,,0.00,meteohub,2013-06-08 19:06:00,
2013-06-08 14:11:00,67.6,55.9,29.97,NNW,348,2.0,12.0,66,0.00,,,0.00,meteohub,2013-06-08 19:11:00,
2013-06-08 14:16:00,67.6,55.0,29.97,NNW,347,6.0,12.0,64,0.00,,,0.00,meteohub,2013-06-08 19:16:00,
2013-06-08 14:22:00,67.5,55.2,29.97,NNW,342,3.0,12.0,65,0.00,,,0.00,meteohub,2013-06-08 19:22:00,
2013-06-08 14:27:00,68.2,56.3,29.97,North,351,7.0,9.0,66,0.00,,,0.00,meteohub,2013-06-08 19:27:00,
2013-06-08 14:32:00,68.5,55.0,29.97,NNW,348,7.0,8.0,62,0.00,,,0.00,meteohub,2013-06-08 19:32:00,
2013-06-08 14:37:00,68.7,55.6,29.97,NNE,20,6.0,10.0,63,0.00,,,0.00,meteohub,2013-06-08 19:37:00,
2013-06-08 14:42:00,68.7,55.6,29.97,North,11,5.0,11.0,63,0.00,,,0.00,meteohub,2013-06-08 19:42:00,
2013-06-08 14:47:00,69.1,55.0,29.97,North,5,2.0,11.0,61,0.00,,,0.00,meteohub,2013-06-08 19:47:00,
2013-06-08 14:52:00,69.3,54.9,29.97,NNE,22,4.0,10.0,60,0.00,,,0.00,meteohub,2013-06-08 19:52:00,
2013-06-08 14:58:00,69.3,54.9,29.97,NNE,22,1.0,10.0,60,0.00,,,0.00,meteohub,2013-06-08 19:58:00,
2013-06-08 15:03:00,69.1,55.0,29.97,NNE,14,6.0,10.0,61,0.00,,,0.00,meteohub,2013-06-08 20:03:00,
2013-06-08 15:08:00,68.7,53.4,29.97,NNE,14,0.0,10.0,58,0.00,,,0.00,meteohub,2013-06-08 20:08:00,
2013-06-08 15:13:00,69.3,55.8,29.97,NNE,14,5.0,10.0,62,0.00,,,0.00,meteohub,2013-06-08 20:13:00,
2013-06-08 15:19:00,69.4,55.4,29.97,North,5,7.0,10.0,61,0.00,,,0.00,meteohub,2013-06-08 20:19:00,
2013-06-08 15:24:00,69.6,54.1,29.97,North,5,0.0,8.0,58,0.00,,,0.00,meteohub,2013-06-08 20:24:00,
2013-06-08 15:29:00,70.0,56.3,29.97,North,5,6.0,9.0,62,0.00,,,0.00,meteohub,2013-06-08 20:29:00,
2013-06-08 15:34:00,70.0,55.0,29.97,North,5,1.0,9.0,59,0.00,,,0.00,meteohub,2013-06-08 20:34:00,
2013-06-08 15:39:00,69.6,53.8,29.97,NE,40,1.0,9.0,57,0.00,,,0.00,meteohub,2013-06-08 20:39:00,
2013-06-08 15:45:00,69.6,55.9,29.97,NE,42,5.0,9.0,62,0.00,,,0.00,meteohub,2013-06-08 20:45:00,
2013-06-08 15:50:00,70.0,55.9,29.97,ENE,63,7.0,11.0,61,0.00,,,0.00,meteohub,2013-06-08 20:50:00,
2013-06-08 15:55:00,69.6,54.7,29.97,ENE,61,5.0,11.0,59,0.00,,,0.00,meteohub,2013-06-08 20:55:00,
2013-06-08 16:00:00,69.4,55.4,29.97,ENE,61,2.0,11.0,61,0.00,,,0.00,meteohub,2013-06-08 21:00:00,
2013-06-08 16:05:00,69.4,55.4,29.97,ENE,62,5.0,9.0,61,0.00,,,0.00,meteohub,2013-06-08 21:05:00,
2013-06-08 16:10:00,69.6,53.8,29.97,ENE,74,1.0,7.0,57,0.00,,,0.00,meteohub,2013-06-08 21:10:00,
2013-06-08 16:16:00,69.4,54.5,29.98,ENE,77,4.0,9.0,59,0.00,,,0.00,meteohub,2013-06-08 21:16:00,
2013-06-08 16:21:00,69.4,53.6,29.98,ENE,77,2.0,9.0,57,0.00,,,0.00,meteohub,2013-06-08 21:21:00,
2013-06-08 16:26:00,69.3,55.2,29.98,ENE,77,5.0,8.0,61,0.00,,,0.00,meteohub,2013-06-08 21:26:00,
2013-06-08 16:31:00,69.3,55.2,29.98,ENE,77,4.0,7.0,61,0.00,,,0.00,meteohub,2013-06-08 21:31:00,
2013-06-08 16:37:00,69.3,54.9,29.98,ENE,77,2.0,7.0,60,0.00,,,0.00,meteohub,2013-06-08 21:37:00,
2013-06-08 16:42:00,69.3,55.8,29.98,ENE,77,4.0,7.0,62,0.00,,,0.00,meteohub,2013-06-08 21:42:00,
2013-06-08 16:47:00,69.1,54.7,29.98,East,79,8.0,8.0,60,0.00,,,0.00,meteohub,2013-06-08 21:47:00,
2013-06-08 16:52:00,68.5,54.1,29.98,East,84,5.0,9.0,60,0.00,,,0.00,meteohub,2013-06-08 21:52:00,
2013-06-08 16:57:00,68.5,54.1,29.98,East,84,3.0,9.0,60,0.00,,,0.00,meteohub,2013-06-08 21:57:00,
2013-06-08 17:02:00,68.7,55.2,29.98,East,84,3.0,9.0,62,0.00,,,0.00,meteohub,2013-06-08 22:02:00,
2013-06-08 17:07:00,68.7,54.3,29.99,East,84,3.0,8.0,60,0.00,,,0.00,meteohub,2013-06-08 22:07:00,
2013-06-08 17:12:00,68.7,54.3,29.99,East,84,3.0,9.0,60,0.00,,,0.00,meteohub,2013-06-08 22:12:00,
2013-06-08 17:17:00,68.5,54.5,29.99,East,84,7.0,9.0,61,0.00,,,0.00,meteohub,2013-06-08 22:17:00,
2013-06-08 17:22:00,68.5,54.5,29.99,East,84,5.0,9.0,61,0.00,,,0.00,meteohub,2013-06-08 22:22:00,
2013-06-08 17:27:00,68.4,54.3,29.99,East,84,3.0,8.0,61,0.00,,,0.00,meteohub,2013-06-08 22:27:00,
2013-06-08 17:32:00,68.2,54.7,29.99,East,84,5.0,7.0,62,0.00,,,0.00,meteohub,2013-06-08 22:32:00,
2013-06-08 17:37:00,68.0,55.4,29.99,East,84,5.0,7.0,64,0.00,,,0.00,meteohub,2013-06-08 22:37:00,
2013-06-08 17:42:00,68.0,56.3,29.99,East,84,1.0,7.0,66,0.00,,,0.00,meteohub,2013-06-08 22:42:00,
2013-06-08 17:47:00,67.8,55.2,29.99,East,84,1.0,7.0,64,0.00,,,0.00,meteohub,2013-06-08 22:47:00,
2013-06-08 17:52:00,67.6,54.7,29.99,East,84,7.0,7.0,63,0.00,,,0.00,meteohub,2013-06-08 22:52:00,
2013-06-08 17:57:00,67.5,55.8,29.99,East,85,6.0,8.0,66,0.00,,,0.00,meteohub,2013-06-08 22:57:00,
2013-06-08 18:02:00,67.5,55.2,29.99,East,85,3.0,9.0,65,0.00,,,0.00,meteohub,2013-06-08 23:02:00,
2013-06-08 18:07:00,67.3,55.6,29.99,East,86,2.0,9.0,66,0.00,,,0.00,meteohub,2013-06-08 23:07:00,
2013-06-08 18:12:00,67.3,55.6,29.99,East,86,1.0,9.0,66,0.00,,,0.00,meteohub,2013-06-08 23:12:00,
2013-06-08 18:17:00,66.9,54.9,29.99,East,86,3.0,8.0,65,0.00,,,0.00,meteohub,2013-06-08 23:17:00,
2013-06-08 18:22:00,66.9,54.9,29.99,East,86,6.0,8.0,65,0.00,,,0.00,meteohub,2013-06-08 23:22:00,
2013-06-08 18:27:00,66.7,54.1,29.99,East,86,7.0,9.0,64,0.00,,,0.00,meteohub,2013-06-08 23:27:00,
2013-06-08 18:32:00,66.7,54.7,29.99,East,86,7.0,9.0,65,0.00,,,0.00,meteohub,2013-06-08 23:32:00,
2013-06-08 18:37:00,66.6,55.2,29.99,East,86,3.0,9.0,67,0.00,,,0.00,meteohub,2013-06-08 23:37:00,
2013-06-08 18:42:00,66.4,55.6,29.99,East,86,6.0,9.0,68,0.00,,,0.00,meteohub,2013-06-08 23:42:00,
2013-06-08 18:47:00,66.0,54.7,29.99,East,86,7.0,8.0,67,0.00,,,0.00,meteohub,2013-06-08 23:47:00,
2013-06-08 18:52:00,65.8,55.0,29.99,East,86,6.0,10.0,68,0.00,,,0.00,meteohub,2013-06-08 23:52:00,
2013-06-08 18:58:00,65.7,55.2,29.99,East,86,5.0,10.0,69,0.00,,,0.00,meteohub,2013-06-08 23:58:00,
2013-06-08 19:03:00,65.5,55.8,29.99,East,86,6.0,10.0,71,0.00,,,0.00,meteohub,2013-06-09 00:03:00,
2013-06-08 19:08:00,65.5,55.4,29.99,East,86,6.0,8.0,70,0.00,,,0.00,meteohub,2013-06-09 00:08:00,
2013-06-08 19:13:00,65.3,55.2,29.99,East,86,6.0,8.0,70,0.00,,,0.00,meteohub,2013-06-09 00:13:00,
2013-06-08 19:18:00,65.1,55.4,29.99,East,86,6.0,8.0,71,0.00,,,0.00,meteohub,2013-06-09 00:18:00,
2013-06-08 19:23:00,65.1,55.0,29.99,East,86,6.0,9.0,70,0.00,,,0.00,meteohub,2013-06-09 00:23:00,
2013-06-08 19:28:00,65.1,55.9,29.99,East,86,5.0,9.0,72,0.00,,,0.00,meteohub,2013-06-09 00:28:00,
2013-06-08 19:34:00,64.9,55.4,29.99,East,86,6.0,9.0,71,0.00,,,0.00,meteohub,2013-06-09 00:34:00,
2013-06-08 19:39:00,64.8,55.6,29.99,East,86,2.0,9.0,72,0.00,,,0.00,meteohub,2013-06-09 00:39:00,
2013-06-08 19:44:00,64.4,54.9,29.99,East,86,6.0,7.0,71,0.00,,,0.00,meteohub,2013-06-09 00:44:00,
2013-06-08 19:49:00,64.2,54.7,30.00,East,86,5.0,7.0,71,0.00,,,0.00,meteohub,2013-06-09 00:49:00,
2013-06-08 19:54:00,63.9,54.7,30.00,East,86,5.0,8.0,72,0.00,,,0.00,meteohub,2013-06-09 00:54:00,
2013-06-08 19:59:00,63.7,54.5,30.00,East,86,7.0,8.0,72,0.00,,,0.00,meteohub,2013-06-09 00:59:00,
2013-06-08 20:04:00,63.3,54.1,30.00,East,86,3.0,8.0,72,0.00,,,0.00,meteohub,2013-06-09 01:04:00,
2013-06-08 20:09:00,63.1,54.3,30.00,East,86,3.0,8.0,73,0.00,,,0.00,meteohub,2013-06-09 01:09:00,
2013-06-08 20:15:00,62.6,54.1,30.00,East,86,5.0,8.0,74,0.00,,,0.00,meteohub,2013-06-09 01:15:00,
2013-06-08 20:20:00,62.2,54.1,30.00,East,86,6.0,7.0,75,0.00,,,0.00,meteohub,2013-06-09 01:20:00,
2013-06-08 20:25:00,61.9,53.8,30.00,East,86,5.0,6.0,75,0.00,,,0.00,meteohub,2013-06-09 01:25:00,
2013-06-08 20:30:00,61.5,53.6,29.99,East,86,2.0,7.0,75,0.00,,,0.00,meteohub,2013-06-09 01:30:00,
2013-06-08 20:35:00,61.5,53.2,29.99,East,86,2.0,7.0,74,0.00,,,0.00,meteohub,2013-06-09 01:35:00,
2013-06-08 20:41:00,61.3,53.4,29.99,East,86,1.0,7.0,75,0.00,,,0.00,meteohub,2013-06-09 01:41:00,
2013-06-08 20:46:00,61.0,53.4,30.00,East,86,2.0,7.0,76,0.00,,,0.00,meteohub,2013-06-09 01:46:00,
2013-06-08 20:52:00,60.3,53.4,30.00,East,86,2.0,5.0,78,0.00,,,0.00,meteohub,2013-06-09 01:52:00,
2013-06-08 20:57:00,59.9,53.8,30.00,East,86,2.0,5.0,80,0.00,,,0.00,meteohub,2013-06-09 01:57:00,
2013-06-08 21:02:00,59.7,53.6,30.00,East,86,0.0,5.0,80,0.00,,,0.00,meteohub,2013-06-09 02:02:00,
2013-06-08 21:07:00,59.5,53.8,30.00,East,86,3.0,5.0,81,0.00,,,0.00,meteohub,2013-06-09 02:07:00,
2013-06-08 21:13:00,59.5,53.4,30.00,East,86,3.0,5.0,80,0.00,,,0.00,meteohub,2013-06-09 02:13:00,
2013-06-08 21:18:00,59.5,53.4,30.00,East,86,2.0,6.0,80,0.00,,,0.00,meteohub,2013-06-09 02:18:00,
2013-06-08 21:23:00,59.2,53.4,30.00,East,86,0.0,6.0,81,0.00,,,0.00,meteohub,2013-06-09 02:23:00,
2013-06-08 21:28:00,58.6,53.2,30.00,East,86,2.0,6.0,82,0.00,,,0.00,meteohub,2013-06-09 02:28:00,
2013-06-08 21:33:00,58.5,53.1,30.00,East,86,0.0,3.0,82,0.00,,,0.00,meteohub,2013-06-09 02:33:00,
2013-06-08 21:38:00,58.1,52.9,30.00,East,86,1.0,3.0,83,0.00,,,0.00,meteohub,2013-06-09 02:38:00,
2013-06-08 21:44:00,58.1,52.9,30.00,East,86,2.0,5.0,83,0.00,,,0.00,meteohub,2013-06-09 02:44:00,
2013-06-08 21:49:00,58.1,52.9,30.00,East,86,2.0,5.0,83,0.00,,,0.00,meteohub,2013-06-09 02:49:00,
2013-06-08 21:54:00,58.1,52.7,30.01,East,86,3.0,5.0,82,0.00,,,0.00,meteohub,2013-06-09 02:54:00,
2013-06-08 21:59:00,57.9,52.5,30.01,East,86,0.0,5.0,82,0.00,,,0.00,meteohub,2013-06-09 02:59:00,
2013-06-08 22:04:00,57.7,52.7,30.01,East,86,1.0,5.0,83,0.00,,,0.00,meteohub,2013-06-09 03:04:00,
2013-06-08 22:09:00,57.6,52.5,30.01,East,86,1.0,3.0,83,0.00,,,0.00,meteohub,2013-06-09 03:09:00,
2013-06-08 22:15:00,57.4,52.3,30.01,East,86,1.0,5.0,83,0.00,,,0.00,meteohub,2013-06-09 03:15:00,
2013-06-08 22:20:00,57.2,52.2,30.00,East,86,1.0,3.0,83,0.00,,,0.00,meteohub,2013-06-09 03:20:00,
2013-06-08 22:25:00,57.0,52.0,30.01,East,86,1.0,3.0,83,0.00,,,0.00,meteohub,2013-06-09 03:25:00,
2013-06-08 22:30:00,56.8,51.8,30.01,East,86,1.0,5.0,83,0.00,,,0.00,meteohub,2013-06-09 03:30:00,
2013-06-08 22:35:00,56.5,51.6,30.01,East,86,2.0,5.0,84,0.00,,,0.00,meteohub,2013-06-09 03:35:00,
2013-06-08 22:41:00,56.1,51.6,30.01,East,86,3.0,5.0,85,0.00,,,0.00,meteohub,2013-06-09 03:41:00,
2013-06-08 22:46:00,55.9,51.4,30.00,East,86,3.0,5.0,85,0.00,,,0.00,meteohub,2013-06-09 03:46:00,
2013-06-08 22:51:00,55.9,51.8,30.01,East,86,2.0,5.0,86,0.00,,,0.00,meteohub,2013-06-09 03:51:00,
2013-06-08 22:56:00,56.3,51.8,30.01,East,86,2.0,5.0,85,0.00,,,0.00,meteohub,2013-06-09 03:56:00,
2013-06-08 23:01:00,56.5,51.6,30.01,East,86,2.0,5.0,84,0.00,,,0.00,meteohub,2013-06-09 04:01:00,
2013-06-08 23:02:00,56.5,51.6,30.01,East,86,1.0,5.0,84,0.00,,,0.00,meteohub,2013-06-09 04:02:00,
2013-06-08 23:04:00,56.3,51.4,30.01,East,86,2.0,5.0,84,0.00,,,0.00,meteohub,2013-06-09 04:04:00,
2013-06-08 23:09:00,55.9,51.4,30.01,East,86,3.0,5.0,85,0.00,,,0.00,meteohub,2013-06-09 04:09:00,
2013-06-08 23:15:00,55.8,51.3,30.01,East,86,1.0,5.0,85,0.00,,,0.00,meteohub,2013-06-09 04:15:00,
2013-06-08 23:20:00,55.9,51.4,30.01,East,86,0.0,5.0,85,0.00,,,0.00,meteohub,2013-06-09 04:20:00,
2013-06-08 23:25:00,55.8,51.1,30.01,East,86,0.0,5.0,84,0.00,,,0.00,meteohub,2013-06-09 04:25:00,
2013-06-08 23:30:00,55.8,51.1,30.01,East,86,2.0,5.0,84,0.00,,,0.00,meteohub,2013-06-09 04:30:00,
2013-06-08 23:36:00,55.8,51.1,30.01,East,86,7.0,7.0,84,0.00,,,0.00,meteohub,2013-06-09 04:36:00,
2013-06-08 23:41:00,56.1,51.4,30.01,East,86,3.0,7.0,84,0.00,,,0.00,meteohub,2013-06-09 04:41:00,
2013-06-08 23:46:00,56.1,51.1,30.01,East,86,1.0,7.0,83,0.00,,,0.00,meteohub,2013-06-09 04:46:00,
2013-06-08 23:52:00,55.9,50.9,30.01,East,86,6.0,7.0,83,0.00,,,0.00,meteohub,2013-06-09 04:52:00,
2013-06-08 23:57:00,56.5,51.4,30.01,East,86,3.0,6.0,83,0.00,,,0.00,meteohub,2013-06-09 04:57:00,